TimePDT,TemperatureF,Dew PointF,Humidity,Sea Level PressureIn,VisibilityMPH,Wind Direction,Wind SpeedMPH,Gust SpeedMPH,PrecipitationIn,Events,Conditions,WindDirDegrees,DateUTC
12:53 AM,51.1,46.0,83,30.33,10.0,SSW,6.9,-,0.00,Rain,Light Rain,200,2013-04-19 07:53:00
1:53 AM,51.1,46.9,86,30.31,10.0,South,6.9,-,0.00,,Overcast,190,2013-04-19 08:53:00
2:53 AM,50.0,46.9,89,30.29,10.0,SSW,6.9,-,N/A,,Overcast,210,2013-04-19 09:53:00
3:21 AM,50.0,46.4,87,30.28,10.0,South,9.2,-,N/A,,Overcast,190,2013-04-19 10:21:00
3:53 AM,50.0,46.0,86,30.26,10.0,South,6.9,-,0.00,,Overcast,180,2013-04-19 10:53:00
4:33 AM,50.0,46.4,87,30.24,10.0,South,9.2,-,N/A,,Overcast,190,2013-04-19 11:33:00
4:42 AM,50.0,46.4,87,30.24,10.0,SSW,9.2,-,N/A,,Overcast,200,2013-04-19 11:42:00
4:53 AM,50.0,46.9,89,30.23,10.0,South,6.9,-,N/A,,Overcast,190,2013-04-19 11:53:00
5:53 AM,50.0,46.0,86,30.21,10.0,SSW,8.1,-,0.00,Rain,Light Rain,210,2013-04-19 12:53:00
6:35 AM,50.0,46.4,87,30.21,7.0,SSW,6.9,-,0.03,Rain,Light Rain,210,2013-04-19 13:35:00
6:51 AM,50.0,46.4,87,30.21,9.0,SW,6.9,-,0.05,Rain,Light Rain,220,2013-04-19 13:51:00
6:53 AM,50.0,46.9,89,30.21,8.0,SW,6.9,-,0.05,Rain,Light Rain,220,2013-04-19 13:53:00
7:53 AM,50.0,46.9,89,30.20,9.0,South,11.5,-,0.05,Rain,Light Rain,190,2013-04-19 14:53:00
8:53 AM,52.0,48.0,86,30.19,10.0,South,10.4,-,0.00,Rain,Light Rain,190,2013-04-19 15:53:00
9:00 AM,51.8,48.2,88,30.19,10.0,South,12.7,-,N/A,,Overcast,190,2013-04-19 16:00:00
9:53 AM,53.1,48.0,83,30.18,10.0,South,12.7,-,0.00,,Overcast,190,2013-04-19 16:53:00
10:53 AM,54.0,50.0,86,30.19,9.0,SSW,11.5,-,0.01,,Overcast,210,2013-04-19 17:53:00
11:53 AM,57.0,51.1,81,30.20,10.0,SW,15.0,21.9,0.00,,Mostly Cloudy,230,2013-04-19 18:53:00
12:05 PM,57.2,51.8,82,30.20,10.0,SW,16.1,21.9,N/A,,Overcast,230,2013-04-19 19:05:00
12:19 PM,57.2,51.8,82,30.21,9.0,WSW,15.0,-,N/A,,Overcast,240,2013-04-19 19:19:00
12:53 PM,57.0,50.0,77,30.21,10.0,SW,16.1,21.9,0.00,,Overcast,230,2013-04-19 19:53:00
1:53 PM,59.0,50.0,72,30.22,10.0,SW,17.3,21.9,N/A,,Mostly Cloudy,230,2013-04-19 20:53:00
2:53 PM,57.0,48.9,74,30.24,10.0,WSW,13.8,-,N/A,,Overcast,240,2013-04-19 21:53:00
3:53 PM,57.0,48.0,72,30.25,10.0,SW,15.0,24.2,N/A,,Mostly Cloudy,230,2013-04-19 22:53:00
4:53 PM,57.0,46.9,69,30.26,10.0,WSW,15.0,23.0,N/A,,Scattered Clouds,240,2013-04-19 23:53:00
5:53 PM,55.9,46.9,72,30.26,10.0,SW,12.7,20.7,N/A,,Scattered Clouds,230,2013-04-20 00:53:00
6:53 PM,54.0,46.0,75,30.27,10.0,SW,11.5,-,N/A,,Mostly Cloudy,230,2013-04-20 01:53:00
7:53 PM,52.0,45.0,77,30.27,10.0,WSW,11.5,-,N/A,,Mostly Cloudy,250,2013-04-20 02:53:00
8:53 PM,48.0,44.1,86,30.28,10.0,SW,8.1,-,N/A,,Clear,220,2013-04-20 03:53:00
9:53 PM,46.9,44.1,90,30.30,10.0,South,6.9,-,N/A,,Clear,170,2013-04-20 04:53:00
10:53 PM,46.9,43.0,86,30.30,10.0,WSW,10.4,-,N/A,,Scattered Clouds,240,2013-04-20 05:53:00
11:53 PM,48.0,44.1,86,30.31,10.0,SW,6.9,-,N/A,,Partly Cloudy,230,2013-04-20 06:53:00